GW3253 Weather Reports


time (UTC)temp
C
wind
direction
speed
KPH
gust
KPH
rain 1hr
cm
rain 24hr
cm
rain mn
cm
humidity
%
barometer
mb
20260510193055 26 347 22.5 33.8 0.00 1.02 0.03 84 1015.2
20260510191555 26 49 9.7 20.9 0.00 1.02 0.03 82 1015.1
20260510190054 27 73 11.3 22.5 0.00 1.02 0.03 81 1014.9
20260510184600 27 82 9.7 27.4 0.00 1.02 0.03 81 1015.2
20260510183055 28 40 8.0 22.5 0.00 1.02 0.03 80 1015.5
20260510181553 28 78 9.7 16.1 0.00 1.02 0.03 79 1015.4
20260510180050 28 37 6.4 14.5 0.00 1.02 0.03 81 1015.4
20260510174558 28 52 4.8 11.3 0.00 1.02 0.03 78 1015.6
20260510173048 28 80 4.8 14.5 0.00 1.02 0.03 78 1015.7
20260510171554 28 94 4.8 14.5 0.00 1.02 0.03 78 1015.8
20260510170051 29 96 1.6 12.9 0.00 1.02 0.03 74 1016.0
20260510164550 30 0 4.8 12.9 0.00 1.02 0.03 66 1016.1
20260510163049 29 257 6.4 14.5 0.00 1.02 0.03 69 1016.3
20260510161553 29 301 11.3 17.7 0.00 1.02 0.03 67 1016.4
20260510160052 29 223 6.4 14.5 0.00 1.02 0.03 68 1016.3
20260510154550 29 292 8.0 16.1 0.00 1.02 0.03 67 1016.5
20260510153051 29 295 4.8 16.1 0.00 1.02 0.03 66 1016.4
20260510151552 29 236 6.4 12.9 0.00 1.02 0.03 67 1016.2
20260510150055 28 251 6.4 14.5 0.00 1.02 0.03 70 1016.2
20260510144607 28 257 3.2 11.3 0.00 1.02 0.03 73 1016.1
20260510143107 27 194 4.8 9.7 0.00 1.02 0.03 76 1016.2
20260510141603 27 203 4.8 11.3 0.00 1.02 0.03 79 1016.0
20260510140051 26 216 3.2 6.4 0.00 1.02 0.03 83 1015.7
20260510134604 25 211 4.8 8.0 0.00 1.02 0.03 85 1015.7
20260510133055 25 236 4.8 11.3 0.00 1.02 0.03 88 1015.7
20260510131551 25 223 4.8 12.9 0.00 1.02 0.03 89 1015.6
20260510130051 24 226 3.2 8.0 0.00 1.02 0.03 91 1015.5
20260510124602 23 175 1.6 9.7 0.00 1.02 0.03 91 1015.5
20260510123051 23 232 1.6 6.4 0.00 1.02 0.03 91 1015.4
20260510121548 23 219 4.8 8.0 0.03 1.02 0.03 91 1015.2
20260510120052 23 0 1.6 4.8 0.03 1.02 0.03 92 1015.0
20260510114554 23 276 1.6 4.8 0.03 1.02 0.03 92 1014.6
20260510113049 23 0 0.0 1.6 0.03 1.02 0.03 92 1014.5
20260510111605 23 0 1.6 3.2 0.00 0.99 0.00 92 1014.4
20260510110052 22 0 0.0 0.0 0.00 0.99 0.00 92 1014.2
20260510104611 22 207 3.2 6.4 0.00 0.99 0.00 92 1013.8
20260510103055 23 209 3.2 6.4 0.00 0.99 0.00 92 1013.7
20260510101555 23 0 0.0 3.2 0.00 0.99 0.00 92 1013.6
20260510094555 23 0 0.0 4.8 0.00 0.99 0.00 92 1013.3
20260510093055 23 0 1.6 8.0 0.00 0.99 0.00 92 1013.1
20260510091555 23 181 3.2 6.4 0.00 0.99 0.00 92 1012.9
20260510090053 23 217 3.2 6.4 0.00 0.99 0.00 92 1012.8
20260510084552 23 200 1.6 3.2 0.00 0.99 0.00 92 1012.7
20260510083059 23 208 1.6 3.2 0.00 0.99 0.00 91 1012.9
20260510081628 23 211 3.2 6.4 0.00 0.99 0.00 91 1013.0
20260510080057 23 0 0.0 0.0 0.00 0.99 0.00 91 1013.0
20260510074557 23 0 0.0 0.0 0.00 0.99 0.00 91 1012.9
20260510073052 23 0 0.0 0.0 0.00 0.99 0.00 91 1013.0
20260510071553 23 0 0.0 0.0 0.00 0.99 0.00 90 1013.0
20260510070055 23 0 0.0 0.0 0.00 0.99 0.00 90 1013.3
20260510064551 23 0 0.0 0.0 0.00 0.99 0.00 90 1013.3
20260510063059 24 0 0.0 0.0 0.00 0.99 0.00 89 1013.4
20260510061552 24 0 0.0 0.0 0.00 0.99 0.00 89 1013.6
20260510060054 24 0 0.0 0.0 0.00 0.99 0.00 88 1013.9
20260510054549 24 0 0.0 0.0 0.00 0.99 0.00 88 1013.9
20260510053057 24 0 0.0 3.2 0.00 0.99 0.00 88 1014.2
20260510051626 23 146 1.6 4.8 0.00 0.99 0.00 88 1014.2
20260510050051 23 144 1.6 6.4 0.00 0.99 0.00 88 1014.5
20260510044553 24 117 0.0 4.8 0.00 0.99 0.00 88 1014.6
20260510043132 24 114 1.6 6.4 0.00 0.99 0.00 87 1014.4
20260510041555 24 134 1.6 11.3 0.00 0.99 0.00 87 1014.6
20260510040050 23 130 4.8 11.3 0.00 0.99 0.00 86 1014.5
20260510034553 23 135 3.2 9.7 0.00 0.99 0.99 87 1014.5
20260510033056 24 133 3.2 9.7 0.00 0.99 0.99 87 1014.6
20260510031625 24 123 3.2 9.7 0.00 0.99 0.99 87 1014.5
20260510030053 24 140 3.2 12.9 0.00 0.99 0.99 87 1014.5
20260510024549 24 117 3.2 11.3 0.00 0.99 0.99 87 1014.6
20260510023057 24 143 3.2 6.4 0.00 0.99 0.99 87 1014.7
20260510021549 24 120 1.6 6.4 0.00 0.99 0.99 87 1014.5
20260510020049 24 119 1.6 6.4 0.00 0.99 0.99 86 1014.2
20260510014552 24 103 1.6 4.8 0.00 0.99 0.99 86 1014.3
20260510013047 24 0 1.6 4.8 0.00 0.99 0.99 85 1014.1
20260510011603 23 0 0.0 3.2 0.00 0.99 0.99 85 1013.9
20260510010106 23 0 0.0 4.8 0.00 0.99 0.99 85 1014.0
20260510004551 23 95 3.2 6.4 0.00 0.99 0.99 85 1013.8
20260510003101 24 0 1.6 6.4 0.00 0.99 0.99 85 1013.4
20260510001550 23 57 1.6 6.4 0.00 0.99 0.99 85 1013.1
20260510000052 23 46 0.0 1.6 0.00 0.99 0.99 87 1013.0
20260509234558 23 60 3.2 6.4 0.00 4.14 0.99 87 1013.1
20260509233050 23 96 1.6 4.8 0.00 4.14 0.99 88 1012.9
20260509231559 23 74 1.6 9.7 0.00 4.14 0.99 87 1012.7
20260509230054 23 101 3.2 11.3 0.00 4.14 0.99 87 1012.5
20260509224557 23 69 3.2 9.7 0.00 4.14 0.99 87 1012.4
20260509223051 23 103 4.8 12.9 0.30 4.14 0.99 87 1012.7
20260509221554 23 34 4.8 17.7 0.99 4.14 0.99 88 1013.1
20260509220053 23 351 3.2 9.7 0.99 4.14 0.99 88 1012.9
20260509214552 23 322 9.7 19.3 0.99 4.14 0.99 87 1012.7
20260509213101 24 336 8.0 25.7 0.66 3.81 0.66 83 1012.5
20260509211613 25 338 9.7 24.1 0.00 3.15 0.00 80 1011.8
20260509210058 26 329 16.1 29.0 0.00 3.15 0.00 81 1011.8
20260509204603 26 352 6.4 12.9 0.00 3.15 0.00 85 1011.7
20260509203058 27 91 8.0 12.9 0.00 3.15 0.00 84 1011.3
20260509201553 27 99 4.8 14.5 0.00 3.15 0.00 84 1011.3
20260509200056 27 82 6.4 16.1 0.00 3.15 0.00 83 1011.3
20260509194553 27 90 6.4 12.9 0.00 3.15 0.00 82 1011.4